STARLINK-11440, 62513

Orbit data source: Space-Track

STARLINK-11440, 62513 is a payload satellite owned by SpaceX/Seattle (US) in LEO that was launched on Wed, 08 Jan 2025 UTC via an FALCON 9 launch vehicle from the Air Force Eastern Test Range (AFETR). Payload-class satellites include a variety of spacecraft equipped with specific instruments for various scientific and technological missions. These include communications satellites like Starlink; space stations such as the ISS; scientific satellites like the Hubble; Earth observation satellites from companies like Planet Labs, Umbra, and HawkEye 360; GPS; miniature CubeSats for education and research; and military/defense satellites.

Loading next visibility...
Identifier
62513, 2025-004C
Orbit
LEO
Country
Flag of USUS
Related business
Manufacturer
SpaceX/Seattle
Mission
Operational Commercial Communications
Bus & Motor
STARLINK V2MD, Unknown motor
Mass
960 kg wet, ~910 kg dry
Launch date (UTC)
2025-01-08 (1 year ago)
Launch vehicle
FALCON 9
Launch site
Air Force Eastern Test Range (AFETR)
Object type
Payload
Rocket body
Debris
Shape & HBR
Box + 2 Pan, 18.1 m
Radar Cross Section
36.964 m², Large (>1 m²)

Expand to show TLE details & history
Last TLE update: 11 hours ago

TLE from 11 hours ago
0 STARLINK-11440
1 62513U 25004C   26095.18683367  .00449190  00000-0  32883-2 0  9995
2 62513  42.9997 271.2115 0002571 270.7325  89.3248 15.71058327 71370
Epoch: 2026-04-05T04:29Z
TLE epoch observation values (Epoch: 2026-04-05T04:29:02.429Z)
Latitude
-0.00001°
Longitude
10.45551°
Altitude
355.622 km
Speed
7.698 km/s
True Right ascension
18h 04m 50s
True Declination
0° 00' 00"
Sunlit
Object was in daylight at epoch
Visualization orbit readout
Latitude
Unknown
Longitude
Unknown
Altitude
Unknown
Speed
Unknown
Apparent Right ascension
Unknown
Apparent Declination
Unknown
Sunlit
N/A
Visualization observer readout
Local Sidereal Time
21:11:52
Azimuth
Unknown
Elevation
Unknown
Doppler factor
Unknown
Orbital elements
Apogee altitude
359.585 km
Perigee altitude
356.121 km
Semi-major axis
6,735.99 km
Eccentricity
0.00026
Inclination
42.9997°
RAAN
271.2115°
Arg. of periapsis
270.7325°
True anomaly
89.35426°
Mean anomaly
89.3248°
Eccentric anomaly
89.33953°
Mean motion
3.92592 °/min
Orbital period
91.7 mins
BSTAR
0.0032883
Loading maneuver chart data...
Computing Atmospheric mass density...
Loading historical data...
Loading historical data...
Loading historical data...
Loading historical data...
Loading historical data...
Loading historical data...
Loading historical data...

Documentation

Showing up to 5 results
|